Location: Saint Louis
(38.6272°N, 90.1978°W)
Time: 09:16:18
(UTC-05:00)

ISS - Pass Details

Date: 30 March 2013
Orbit: 402 x 404 km, 51.6° (Epoch: 27 May)

Event Time Altitude Azimuth Distance (km) Brightness Sun altitude
Rises 06:24:36 0° 315° (NW) 2,353 0.2 -5.4°
Reaches altitude 10° 06:26:51 10° 326° (NW) 1,482 -0.7 -5.0°
Maximum altitude 06:29:52 31° 31° (NNE) 747 -1.5 -4.4°
Drops below altitude 10° 06:32:50 10° 95° (E) 1,462 1.2 -3.8°
Sets 06:35:02 0° 107° (ESE) 2,315 1.9 -3.4°
